Tracking 19164 objects as of 21-May-2018
HD Live streaming from Space Station
objects crossing your sky now

NOAA 16 DEB

Track NOAA 16 DEB now!
10-day predictions


NORAD ID: 41059
Int'l Code: 2000-055S
Perigee: 830.7 km
Apogee: 864.7 km
Inclination: 98.8 °
Period: 101.7 minutes
Semi major axis: 7218 km
RCS: Unknown
Launch date: September 21, 2000
Source: United States (US)
Launch site: AIR FORCE WESTERN TEST RANGE (AFWTR)

Note: This is SATELLITE DEBRIS
aabbcc
Your satellite tracking list
Your tracking list is empty




NASA's NSSDC Master Catalog

Two Line Element Set (TLE):
1 41059U 00055S   18140.84145668  .00000020  00000-0  32766-4 0  9995
2 41059  98.8483 219.7593 0023585  87.8033 272.5841 14.15522184128349
Source of the keplerian elements: AFSPC